Regional Weather Roundup
Issued by NWS Cleveland, OH

Home | Current Version | Previous Version | Graphics & Text | Print | Product List | Glossary On
Versions: 1 2 3 4 5 6 7 8 9 10 11 12 13 14 15 16 17 18 19 20 21 22 23 24 25 26 27 28 29 30 31 32 33 34 35 36 37 38 39 40 41 42 43 44 45 46 47 48 49 50
000
ASUS41 KCLE 212300
RWRCLE
OHIO REGIONAL WEATHER ROUNDUP
NATIONAL WEATHER SERVICE WILMINGTON, OH
700 PM EDT SAT OCT 21 2017

NOTE: "FAIR" INDICATES FEW OR NO CLOUDS BELOW 12,000 FEET WITH NO
SIGNIFICANT WEATHER AND/OR OBSTRUCTIONS TO VISIBILITY.

OHZ001>008-015>018-024>027-034-035-043-044-220000-
   NORTHWEST OHIO

CITY           SKY/WX    TMP DP  RH WIND       PRES   REMARKS
DEFIANCE       FAIR      69  46  43 S5        30.15S
FINDLAY        FAIR      65  39  38 S10       30.17R
TOLEDO EXPRESS FAIR      66  56  70 SE5       30.15S
TOLEDO EXEC    FAIR      68  52  56 SE6       30.17S
LIMA           FAIR      65  43  44 S8        30.18S
$$

OHZ009>014-019>023-028>033-038-089-220000-
   NORTHEAST OHIO

CITY           SKY/WX    TMP DP  RH WIND       PRES   REMARKS
CLE-HOPKINS    MOCLDY    68  50  52 S9        30.23R
CLE-LAKEFRONT  FAIR      71  46  40 SE10      30.20S
CUY CO. ARPT   MOCLDY    68  45  42 S5        30.23S
LORAIN-ELYRIA  FAIR      65  46  50 S7        30.22R
ASHTABULA      FAIR      61  51  70 S3        30.25R
AKRON-CANTON   MOCLDY    66  48  52 SE7       30.24F
WOOSTER        NOT AVBL
MANSFIELD      FAIR      67  51  56 S8        30.23R
YOUNGSTOWN     MOCLDY    64  50  60 SE6       30.25S
$$

OHZ042-051>053-060>062-070>072-077>081-220000-
  SOUTHWEST OHIO

CITY           SKY/WX    TMP DP  RH WIND       PRES   REMARKS
CINC-COVINGTON MOCLDY    66  52  60 SE3       30.20S
CINC-LUNKEN    FAIR      62  58  86 CALM      30.21S
HAMILTON       FAIR      61  51  70 CALM      30.21S
DAYTON         NOT AVBL
WRIGHT-PAT AFB NOT AVBL
DAYTON GENERAL FAIR      65  48  54 SE3       30.21S
WILMINGTON     FAIR      64  52  64 SE3       30.23R
$$

OHZ036-037-039>041-045>050-054>059-063>069-073>076-082>088-220000-
  CENTRAL AND SOUTHEAST OHIO

CITY           SKY/WX    TMP DP  RH WIND       PRES   REMARKS
COLUMBUS       MOCLDY    70  52  52 S6        30.22R
OSU AIRPORT    FAIR      69  52  54 S8        30.22R
BOLTON FIELD   CLEAR     66  48  52 S6        30.23R
RICKENBACK AFB FAIR      66  48  53 S6        30.23R
NEWARK         FAIR      68  52  56 S3        30.23R
MARION         FAIR      68  51  54 S7        30.22R
LANCASTER      FAIR      66  53  63 S6        30.24R
ZANESVILLE     FAIR      66  53  63 SE6       30.25R
NEW PHILLY     FAIR      64  53  67 SE3       30.25S
$$




USA.gov is the U.S. government's official web portal to all federal, state and local government web resources and services.